TimeEDT,TemperatureF,Dew PointF,Humidity,Sea Level PressureIn,VisibilityMPH,Wind Direction,Wind SpeedMPH,Gust SpeedMPH,PrecipitationIn,Events,Conditions,WindDirDegrees,DateUTC
12:15 AM,68.0,64.4,88,29.83,10.0,Calm,Calm,-,N/A,,Clear,0,2013-07-23 04:15:00
12:35 AM,68.0,64.4,88,29.83,7.0,Calm,Calm,-,N/A,,Clear,0,2013-07-23 04:35:00
12:55 AM,68.0,64.4,88,29.83,7.0,Calm,Calm,-,N/A,,Clear,0,2013-07-23 04:55:00
1:15 AM,68.0,64.4,88,29.83,5.0,Calm,Calm,-,N/A,,Clear,0,2013-07-23 05:15:00
1:35 AM,68.0,64.4,88,29.83,4.0,Calm,Calm,-,N/A,,Clear,0,2013-07-23 05:35:00
1:55 AM,68.0,64.4,88,29.83,3.0,Calm,Calm,-,N/A,,Clear,0,2013-07-23 05:55:00
2:15 AM,66.2,64.4,94,29.82,3.0,Calm,Calm,-,N/A,,Clear,0,2013-07-23 06:15:00
2:35 AM,66.2,64.4,94,29.82,3.0,Calm,Calm,-,N/A,,Clear,0,2013-07-23 06:35:00
2:55 AM,68.0,64.4,88,29.81,5.0,Calm,Calm,-,N/A,,Clear,0,2013-07-23 06:55:00
3:15 AM,68.0,64.4,88,29.80,4.0,Calm,Calm,-,N/A,,Clear,0,2013-07-23 07:15:00
3:35 AM,68.0,64.4,88,29.79,5.0,Calm,Calm,-,N/A,,Clear,0,2013-07-23 07:35:00
3:55 AM,68.0,64.4,88,29.79,5.0,Calm,Calm,-,N/A,,Clear,0,2013-07-23 07:55:00
4:15 AM,68.0,64.4,88,29.78,5.0,Calm,Calm,-,N/A,,Clear,0,2013-07-23 08:15:00
4:35 AM,68.0,64.4,88,29.78,7.0,SSW,3.5,-,N/A,,Clear,200,2013-07-23 08:35:00
4:55 AM,68.0,64.4,88,29.78,7.0,SSW,4.6,-,N/A,,Scattered Clouds,200,2013-07-23 08:55:00
5:15 AM,69.8,64.4,83,29.76,7.0,South,3.5,-,N/A,,Mostly Cloudy,180,2013-07-23 09:15:00
5:35 AM,69.8,66.2,88,29.75,10.0,SSW,4.6,-,N/A,,Clear,210,2013-07-23 09:35:00
5:55 AM,69.8,66.2,88,29.74,7.0,SSW,5.8,-,N/A,,Clear,200,2013-07-23 09:55:00
6:15 AM,69.8,66.2,88,29.74,10.0,SSW,3.5,-,N/A,,Clear,200,2013-07-23 10:15:00
6:35 AM,69.8,66.2,88,29.75,10.0,SW,4.6,-,N/A,,Clear,230,2013-07-23 10:35:00
6:55 AM,69.8,66.2,88,29.76,7.0,WSW,3.5,-,N/A,,Clear,250,2013-07-23 10:55:00
7:15 AM,69.8,66.2,88,29.76,5.0,Calm,Calm,-,N/A,,Clear,0,2013-07-23 11:15:00
7:35 AM,69.8,66.2,88,29.77,5.0,West,3.5,-,N/A,,Clear,260,2013-07-23 11:35:00
7:55 AM,71.6,68.0,88,29.78,5.0,West,4.6,-,N/A,,Scattered Clouds,270,2013-07-23 11:55:00
8:15 AM,71.6,66.2,83,29.78,7.0,West,4.6,-,N/A,,Clear,270,2013-07-23 12:15:00
8:35 AM,71.6,66.2,83,29.78,7.0,SW,4.6,-,N/A,,Clear,230,2013-07-23 12:35:00
8:55 AM,73.4,68.0,83,29.78,10.0,West,4.6,-,N/A,,Clear,260,2013-07-23 12:55:00
9:15 AM,73.4,66.2,78,29.79,10.0,West,6.9,-,N/A,,Clear,260,2013-07-23 13:15:00
9:35 AM,75.2,66.2,73,29.79,10.0,WSW,6.9,-,N/A,,Clear,250,2013-07-23 13:35:00
9:55 AM,77.0,64.4,65,29.78,10.0,WSW,8.1,-,N/A,,Clear,240,2013-07-23 13:55:00
10:15 AM,77.0,64.4,65,29.78,10.0,West,6.9,-,N/A,,Clear,260,2013-07-23 14:15:00
10:35 AM,78.8,62.6,57,29.78,10.0,West,10.4,-,N/A,,Clear,260,2013-07-23 14:35:00
10:55 AM,78.8,64.4,61,29.79,10.0,WSW,10.4,-,N/A,,Clear,240,2013-07-23 14:55:00
11:15 AM,78.8,62.6,57,29.78,10.0,WSW,9.2,-,N/A,,Clear,240,2013-07-23 15:15:00
11:35 AM,78.8,62.6,57,29.79,10.0,West,12.7,16.1,N/A,,Clear,280,2013-07-23 15:35:00
11:55 AM,78.8,62.6,57,29.79,10.0,West,10.4,-,N/A,,Clear,260,2013-07-23 15:55:00
12:15 PM,80.6,62.6,54,29.78,10.0,West,10.4,-,N/A,,Clear,280,2013-07-23 16:15:00
12:35 PM,80.6,62.6,54,29.79,10.0,West,9.2,-,N/A,,Clear,270,2013-07-23 16:35:00
12:55 PM,80.6,62.6,54,29.79,10.0,SW,10.4,-,N/A,,Scattered Clouds,230,2013-07-23 16:55:00
1:15 PM,80.6,62.6,54,29.78,10.0,West,9.2,-,N/A,,Scattered Clouds,260,2013-07-23 17:15:00
1:35 PM,80.6,62.6,54,29.78,10.0,West,11.5,-,N/A,,Scattered Clouds,270,2013-07-23 17:35:00
1:55 PM,82.4,62.6,51,29.77,10.0,West,8.1,16.1,N/A,,Scattered Clouds,260,2013-07-23 17:55:00
2:15 PM,80.6,64.4,58,29.77,10.0,West,10.4,-,N/A,,Scattered Clouds,260,2013-07-23 18:15:00
2:35 PM,82.4,62.6,51,29.77,10.0,West,11.5,19.6,N/A,,Scattered Clouds,270,2013-07-23 18:35:00
2:55 PM,82.4,62.6,51,29.77,10.0,West,12.7,-,N/A,,Scattered Clouds,270,2013-07-23 18:55:00
3:15 PM,82.4,62.6,51,29.76,10.0,West,10.4,17.3,N/A,,Scattered Clouds,260,2013-07-23 19:15:00
3:35 PM,82.4,62.6,51,29.76,10.0,West,11.5,19.6,N/A,,Scattered Clouds,280,2013-07-23 19:35:00
4:15 PM,82.4,62.6,51,29.76,10.0,West,15.0,21.9,N/A,,Scattered Clouds,280,2013-07-23 20:15:00
4:35 PM,80.6,62.6,54,29.76,10.0,WNW,18.4,26.5,N/A,,Scattered Clouds,300,2013-07-23 20:35:00
4:55 PM,78.8,62.6,57,29.77,10.0,WNW,17.3,26.5,N/A,,Scattered Clouds,300,2013-07-23 20:55:00
5:15 PM,78.8,62.6,57,29.78,10.0,WNW,15.0,26.5,N/A,,Scattered Clouds,300,2013-07-23 21:15:00
5:35 PM,77.0,62.6,61,29.79,10.0,WNW,13.8,24.2,N/A,,Scattered Clouds,300,2013-07-23 21:35:00
5:55 PM,75.2,60.8,61,29.80,10.0,NW,16.1,25.3,N/A,,Scattered Clouds,310,2013-07-23 21:55:00
6:15 PM,73.4,59.0,61,29.80,10.0,NW,15.0,21.9,N/A,,Scattered Clouds,320,2013-07-23 22:15:00
6:35 PM,73.4,59.0,61,29.80,10.0,WNW,15.0,20.7,N/A,,Scattered Clouds,300,2013-07-23 22:35:00
6:55 PM,73.4,57.2,57,29.80,10.0,NW,10.4,19.6,N/A,,Clear,310,2013-07-23 22:55:00
7:15 PM,71.6,55.4,57,29.80,10.0,WNW,15.0,20.7,N/A,,Clear,300,2013-07-23 23:15:00
7:35 PM,71.6,55.4,57,29.81,10.0,NW,11.5,17.3,N/A,,Clear,320,2013-07-23 23:35:00
7:55 PM,71.6,53.6,53,29.81,10.0,NW,11.5,18.4,N/A,,Clear,310,2013-07-23 23:55:00
8:15 PM,69.8,53.6,56,29.81,10.0,WNW,10.4,20.7,N/A,,Clear,300,2013-07-24 00:15:00
8:35 PM,69.8,53.6,56,29.81,10.0,WNW,11.5,-,N/A,,Clear,300,2013-07-24 00:35:00
8:55 PM,68.0,51.8,56,29.82,10.0,NW,9.2,-,N/A,,Clear,310,2013-07-24 00:55:00
9:15 PM,66.2,51.8,60,29.82,10.0,NW,9.2,-,N/A,,Clear,310,2013-07-24 01:15:00
9:35 PM,64.4,51.8,64,29.83,10.0,WNW,5.8,-,N/A,,Clear,300,2013-07-24 01:35:00
9:55 PM,64.4,51.8,64,29.84,10.0,WNW,5.8,-,N/A,,Clear,300,2013-07-24 01:55:00
10:15 PM,62.6,51.8,68,29.85,10.0,WNW,5.8,-,N/A,,Clear,300,2013-07-24 02:15:00
10:35 PM,62.6,51.8,68,29.86,10.0,NW,4.6,-,N/A,,Clear,310,2013-07-24 02:35:00
10:55 PM,62.6,51.8,68,29.88,10.0,NW,6.9,-,N/A,,Clear,310,2013-07-24 02:55:00
11:15 PM,60.8,53.6,77,29.88,10.0,NW,5.8,-,N/A,,Clear,310,2013-07-24 03:15:00
11:35 PM,60.8,53.6,77,29.90,10.0,WNW,8.1,-,N/A,,Clear,300,2013-07-24 03:35:00
11:55 PM,60.8,53.6,77,29.91,10.0,NW,4.6,-,N/A,,Clear,320,2013-07-24 03:55:00